TimeCST,TemperatureF,Dew PointF,Humidity,Sea Level PressureIn,VisibilityMPH,Wind Direction,Wind SpeedMPH,Gust SpeedMPH,PrecipitationIn,Events,Conditions,WindDirDegrees,DateUTC
12:53 AM,50.0,28.9,44,30.10,10.0,South,12.7,-,N/A,,Clear,190,2012-11-30 06:53:00
1:53 AM,50.0,30.0,46,30.09,10.0,South,13.8,-,N/A,,Clear,180,2012-11-30 07:53:00
2:53 AM,50.0,30.9,48,30.09,10.0,South,12.7,-,N/A,,Clear,180,2012-11-30 08:53:00
3:53 AM,48.9,32.0,52,30.08,10.0,South,13.8,-,N/A,,Clear,180,2012-11-30 09:53:00
4:53 AM,48.9,35.1,59,30.07,10.0,South,12.7,-,N/A,,Clear,190,2012-11-30 10:53:00
5:53 AM,50.0,37.0,61,30.08,10.0,South,12.7,-,N/A,,Clear,190,2012-11-30 11:53:00
6:53 AM,48.9,37.9,66,30.10,10.0,SSW,10.4,-,N/A,,Clear,200,2012-11-30 12:53:00
7:53 AM,50.0,39.0,66,30.12,10.0,South,8.1,-,N/A,,Clear,190,2012-11-30 13:53:00
8:53 AM,54.0,41.0,62,30.12,10.0,SSW,15.0,-,N/A,,Clear,200,2012-11-30 14:53:00
9:53 AM,59.0,46.0,62,30.12,10.0,SSW,12.7,-,N/A,,Clear,210,2012-11-30 15:53:00
10:53 AM,62.1,48.0,60,30.11,10.0,SSW,15.0,-,N/A,,Clear,200,2012-11-30 16:53:00
11:53 AM,63.0,48.9,60,30.09,10.0,SW,10.4,-,N/A,,Clear,230,2012-11-30 17:53:00
12:53 PM,64.9,48.9,56,30.06,10.0,South,9.2,-,N/A,,Clear,180,2012-11-30 18:53:00
1:53 PM,64.0,50.0,60,30.05,10.0,South,3.5,-,N/A,,Clear,180,2012-11-30 19:53:00
2:53 PM,66.0,51.1,59,30.04,10.0,South,6.9,-,N/A,,Clear,170,2012-11-30 20:53:00
3:53 PM,64.9,51.1,61,30.04,10.0,South,6.9,-,N/A,,Clear,170,2012-11-30 21:53:00
4:53 PM,61.0,50.0,67,30.04,10.0,South,6.9,-,N/A,,Clear,170,2012-11-30 22:53:00
5:53 PM,61.0,50.0,67,30.03,10.0,SSE,4.6,-,N/A,,Clear,150,2012-11-30 23:53:00
6:53 PM,59.0,48.9,69,30.03,10.0,SE,5.8,-,N/A,,Clear,130,2012-12-01 00:53:00
7:53 PM,57.0,48.9,74,30.02,10.0,ESE,8.1,-,N/A,,Clear,120,2012-12-01 01:53:00
8:53 PM,55.9,48.9,77,30.02,10.0,SE,6.9,-,N/A,,Clear,130,2012-12-01 02:53:00
9:53 PM,54.0,48.9,83,30.04,9.0,South,6.9,-,N/A,,Clear,190,2012-12-01 03:53:00
10:31 PM,57.2,51.8,82,30.05,10.0,SSW,10.4,-,N/A,,Mostly Cloudy,200,2012-12-01 04:31:00
10:53 PM,57.9,52.0,81,30.04,10.0,SSW,10.4,-,N/A,,Overcast,200,2012-12-01 04:53:00
11:53 PM,59.0,53.1,81,30.03,10.0,South,10.4,-,N/A,,Overcast,180,2012-12-01 05:53:00